User: anonymous   Login
Location: Cudham
(51.3000°N, 0.0667°E)
Time: 21:39:50
(UTC+00:00)
Language:

Cosmos 2322 Rocket - Orbit

View from above orbital plane
View from above orbital plane
View from above satellite
View from above satellite

Ground track
Ground track

The orbit data is extracted from the following two-line orbital elements,

1 23705U 95058B   25193.78273229 -.00000242  00000-0 -99532-4 0  9996
2 23705  71.0226 323.9194 0010810 132.3112 227.8929 14.15451258533906
Epoch (UTC): 12 July 2025 18:47:08
Eccentricity: 0.0010810
inclination: 71.0226°
perigee height: 833 km
apogee height: 848 km
right ascension of ascending node: 323.9194°
argument of perigee: 132.3112°
revolutions per day: 14.15451258
mean anomaly at epoch: 227.8929°
orbit number at epoch: 53390

The dashed part of the orbit path shows where the satellite is in the earth's shadow,  

DLR